Weather History for KOGA - May, 2014

Change the Weather History Date:

Thursday, May 8, 2014

  Actual Average Record
Temperature  
Mean Temperature 41 °F -  
Max Temperature 48 °F 70 °F - (-1)
Min Temperature 34 °F 41 °F - (-1)
Degree Days  
Heating Degree Days 24    
Moisture  
Dew Point 36 °F    
Average Humidity 81    
Maximum Humidity 92    
Minimum Humidity 63    
Precipitation  
Precipitation 0.21 in - - ()
Sea Level Pressure  
Sea Level Pressure 29.83 in    
Wind  
Wind Speed 18 mph (NNW)    
Max Wind Speed 31 mph    
Max Gust Speed 36 mph    
Visibility 8 miles    
Events Rain , Thunderstorm    
Averages and records for this station are not official NWS values.
T = Trace of Precipitation, MM = Missing Value Source: NWS Daily Summary

Daily Weather History Graph

Daily Weather History Graph

Search for Another Location

Airport or City:

Trip Planner

Search our weather history database for the weather conditions in past years. The results will help you decide how hot, cold, wet, or windy it might be!

Date:

Astronomy

May. 08, 2014 Rise Set
Actual Time 5:36 AM MDT 7:51 PM MDT
Civil Twilight 5:05 AM MDT 8:22 PM MDT
Nautical Twilight 4:27 AM MDT 9:00 PM MDT
Astronomical Twilight 3:46 AM MDT 9:41 PM MDT
Moon 1:50 PM MDT (5/8) 2:11 AM MDT (5/8)
Length of Visible Light 15h 16m
Length of Day
14h 15m
Waxing Gibbous, 65% of the Moon is Illuminated
May 8
Waxing Gibbous
May 14
Full
May 21
Last Quarter
May 28
New
Jun 5
First Quarter

Hourly Weather History & Observations

Time (MDT) Temp. Windchill Dew Point Humidity Pressure Visibility Wind Dir Wind Speed Gust Speed Precip Events Conditions
12:15 AM 47.3 °F - 43.2 °F 86% 29.72 in 10.0 mi North 17.3 mph 23.0 mph N/A   Overcast
12:35 AM 46.8 °F - 42.6 °F 85% 29.74 in 10.0 mi North 18.4 mph 24.2 mph N/A Thunderstorm Overcast
12:55 AM 46.4 °F 40.1 °F 41.5 °F 83% 29.77 in 10.0 mi NNE 15.0 mph 25.3 mph N/A Thunderstorm Overcast
1:15 AM 45.5 °F 37.6 °F 41.2 °F 85% 29.73 in 10.0 mi North 20.7 mph 26.5 mph N/A   Overcast
1:35 AM 44.2 °F 36.2 °F 41.2 °F 89% 29.75 in 3.0 mi North 19.6 mph 25.3 mph N/A Rain Light Rain
1:55 AM 43.5 °F 34.7 °F 40.8 °F 90% 29.71 in 3.0 mi NNE 21.9 mph 26.5 mph N/A Rain Light Rain
2:15 AM 42.1 °F 33.1 °F 39.6 °F 91% 29.69 in 3.0 mi North 20.7 mph 26.5 mph N/A Rain Light Rain
2:35 AM 42.1 °F 32.3 °F 39.7 °F 91% 29.67 in 3.0 mi North 24.2 mph 28.8 mph N/A Rain Light Rain
2:55 AM 41.5 °F 32.1 °F 39.0 °F 91% 29.66 in 3.0 mi North 21.9 mph 29.9 mph N/A Rain Light Rain
3:15 AM 41.0 °F 33.1 °F 38.3 °F 90% 29.69 in 3.0 mi North 15.0 mph 26.5 mph N/A Rain , Thunderstorm Light Thunderstorms and Rain
3:35 AM 41.0 °F 33.5 °F 38.3 °F 90% 29.70 in 4.0 mi North 13.8 mph 24.2 mph 0.01 in   Drizzle
3:55 AM 41.2 °F 35.0 °F 38.7 °F 91% 29.73 in 4.0 mi North 10.4 mph 18.4 mph 0.02 in   Drizzle
4:15 AM 41.5 °F 33.5 °F 39.0 °F 91% 29.72 in 5.0 mi North 16.1 mph 24.2 mph 0.01 in   Drizzle
4:35 AM 41.9 °F 32.3 °F 39.2 °F 90% 29.70 in 5.0 mi North 23.0 mph 28.8 mph 0.01 in Thunderstorm Unknown
4:55 AM 41.5 °F 32.9 °F 39.2 °F 91% 29.78 in 4.0 mi WSW 18.4 mph 25.3 mph 0.05 in Rain Heavy Rain
5:15 AM 38.5 °F 30.7 °F 36.0 °F 91% 29.73 in 7.0 mi NW 12.7 mph 18.4 mph 0.07 in Rain , Thunderstorm Light Thunderstorms and Rain
5:35 AM 37.6 °F 30.0 °F 34.9 °F 90% 29.75 in 10.0 mi NW 11.5 mph - 0.07 in   Overcast
5:55 AM 36.1 °F 26.9 °F 33.4 °F 90% 29.78 in 7.0 mi WNW 15.0 mph - 0.08 in Rain Light Rain
6:15 AM 36.5 °F 26.3 °F 33.4 °F 89% 29.77 in 5.0 mi NW 18.4 mph 26.5 mph 0.01 in Rain Rain
6:35 AM 36.3 °F 27.1 °F 33.3 °F 89% 29.77 in 4.0 mi NW 15.0 mph 24.2 mph 0.02 in Rain Rain
6:55 AM 36.9 °F 25.6 °F 33.8 °F 89% 29.77 in 5.0 mi NNW 23.0 mph 28.8 mph 0.02 in Rain Rain
7:15 AM 36.9 °F 26.8 °F 33.8 °F 89% 29.78 in 10.0 mi NNW 18.4 mph 26.5 mph N/A Rain Light Rain
7:35 AM 36.5 °F 26.0 °F 33.4 °F 89% 29.78 in 7.0 mi NW 19.6 mph 26.5 mph 0.01 in Rain Light Rain
7:55 AM 36.3 °F 24.7 °F 33.3 °F 89% 29.78 in 10.0 mi NNW 24.2 mph - 0.01 in Rain Light Rain
8:15 AM 36.9 °F 24.9 °F 34.0 °F 89% 29.77 in 7.0 mi NNW 26.5 mph 31.1 mph N/A   Light Drizzle
8:35 AM 37.8 °F 26.6 °F 34.5 °F 88% 29.77 in 7.0 mi NNW 24.2 mph 34.5 mph N/A   Overcast
8:55 AM 39.4 °F 27.5 °F 36.0 °F 88% 29.77 in 4.0 mi NNW 31.1 mph 35.7 mph N/A   Overcast
9:15 AM 40.1 °F 29.5 °F 36.0 °F 85% 29.77 in 7.0 mi NNW 25.3 mph 34.5 mph N/A   Overcast
9:35 AM 41.5 °F 31.6 °F 36.9 °F 83% 29.79 in 10.0 mi NNW 24.2 mph 29.9 mph N/A   Overcast
9:55 AM 40.3 °F 29.9 °F 34.9 °F 81% 29.81 in 10.0 mi NW 24.2 mph 31.1 mph N/A   Overcast
10:15 AM 40.5 °F 30.2 °F 34.9 °F 80% 29.82 in 10.0 mi NW 24.2 mph 29.9 mph N/A   Overcast
10:35 AM 40.6 °F 30.2 °F 34.7 °F 79% 29.81 in 10.0 mi NNW 25.3 mph 32.2 mph N/A   Overcast
10:55 AM 40.3 °F 29.5 °F 34.0 °F 78% 29.82 in 10.0 mi NNW 26.5 mph 32.2 mph N/A   Overcast
11:15 AM 39.9 °F 30.2 °F 34.5 °F 81% 29.84 in 10.0 mi NNW 20.7 mph 31.1 mph N/A   Overcast
11:35 AM 42.1 °F 31.9 °F 37.4 °F 83% 29.83 in 7.0 mi NNW 26.5 mph 32.2 mph N/A   Overcast
11:55 AM 43.2 °F 34.0 °F 38.1 °F 82% 29.84 in 10.0 mi NW 23.0 mph 31.1 mph N/A   Overcast
12:15 PM 44.4 °F 35.7 °F 37.9 °F 78% 29.84 in 10.0 mi NNW 23.0 mph 31.1 mph N/A   Mostly Cloudy
12:35 PM 45.3 °F 36.5 °F 38.3 °F 76% 29.84 in 10.0 mi NNW 25.3 mph 31.1 mph N/A   Mostly Cloudy
12:55 PM 46.2 °F 37.9 °F 37.4 °F 71% 29.84 in - NNW 24.2 mph 33.4 mph 0.03 in   Mostly Cloudy
1:15 PM 46.9 °F - 37.8 °F 70% 29.84 in 10.0 mi NNW 21.9 mph 33.4 mph N/A   Mostly Cloudy
1:35 PM 47.3 °F - 37.8 °F 69% 29.84 in 10.0 mi NNW 24.2 mph 31.1 mph N/A   Mostly Cloudy
1:55 PM 46.2 °F 39.3 °F 36.7 °F 69% 29.86 in 10.0 mi NNW 17.3 mph 26.5 mph N/A   Overcast
2:35 PM 47.1 °F - 37.2 °F 68% 29.86 in 10.0 mi NW 17.3 mph 20.7 mph N/A   Overcast
2:55 PM 46.4 °F 39.8 °F 36.5 °F 68% 29.86 in 10.0 mi NNW 16.1 mph 25.3 mph N/A   Overcast
3:15 PM 46.9 °F - 36.3 °F 67% 29.86 in 10.0 mi NNW 15.0 mph 21.9 mph N/A   Overcast
3:35 PM 46.4 °F 39.2 °F 36.5 °F 68% 29.86 in 10.0 mi NNW 18.4 mph 21.9 mph N/A   Overcast
3:55 PM 46.6 °F - 36.3 °F 67% 29.87 in 10.0 mi NW 18.4 mph 24.2 mph N/A   Overcast
4:15 PM 46.8 °F - 36.3 °F 67% 29.86 in 10.0 mi NNW 17.3 mph 24.2 mph N/A   Overcast
4:35 PM 48.2 °F - 36.3 °F 63% 29.88 in 10.0 mi NNW 17.3 mph 23.0 mph N/A   Mostly Cloudy
4:55 PM 47.8 °F - 36.3 °F 64% 29.88 in 10.0 mi NNW 12.7 mph 21.9 mph N/A   Scattered Clouds
5:15 PM 48.0 °F - 36.3 °F 64% 29.89 in 10.0 mi NNW 17.3 mph - N/A   Clear
5:35 PM 47.8 °F - 35.8 °F 63% 29.90 in 10.0 mi NNW 17.3 mph 23.0 mph N/A   Clear
5:55 PM 46.8 °F - 35.6 °F 65% 29.90 in 10.0 mi NNW 16.1 mph - N/A   Scattered Clouds
6:15 PM 46.4 °F 39.8 °F 35.8 °F 67% 29.90 in 10.0 mi North 16.1 mph 20.7 mph N/A   Clear
6:35 PM 45.5 °F 39.2 °F 35.2 °F 67% 29.91 in 10.0 mi NNW 13.8 mph 18.4 mph N/A   Clear
6:55 PM 45.1 °F 39.9 °F 35.1 °F 68% 29.92 in 10.0 mi NW 10.4 mph - N/A   Clear
7:15 PM 44.1 °F 37.7 °F 34.9 °F 70% 29.93 in 10.0 mi NW 12.7 mph - N/A   Clear
7:35 PM 42.3 °F 36.8 °F 34.3 °F 74% 29.94 in 10.0 mi NW 9.2 mph - N/A   Clear
7:55 PM 41.0 °F 35.8 °F 34.2 °F 77% 29.94 in 10.0 mi NNW 8.1 mph - N/A   Clear
8:15 PM 39.2 °F 35.0 °F 33.8 °F 81% 29.94 in 10.0 mi NNW 5.8 mph - N/A   Clear
8:35 PM 37.9 °F - 33.6 °F 84% 29.95 in 10.0 mi Calm Calm - N/A   Clear
8:55 PM 37.4 °F 34.9 °F 33.1 °F 84% 29.95 in 10.0 mi NW 3.5 mph - N/A   Clear
9:15 PM 36.3 °F 31.6 °F 33.1 °F 88% 29.96 in 10.0 mi NW 5.8 mph - N/A   Clear
9:35 PM 36.5 °F 29.7 °F 33.1 °F 87% 29.95 in 10.0 mi NNW 9.2 mph - N/A   Clear
9:55 PM 36.5 °F 29.7 °F 32.9 °F 87% 29.95 in 10.0 mi NNW 9.2 mph - N/A   Clear
10:15 PM 36.0 °F 32.1 °F 32.7 °F 88% 29.95 in 10.0 mi NNW 4.6 mph - N/A   Clear
10:35 PM 36.3 °F 33.7 °F 32.9 °F 87% 29.95 in 10.0 mi NW 3.5 mph - N/A   Clear
11:15 PM 35.1 °F 30.1 °F 32.2 °F 89% 29.95 in 10.0 mi WSW 5.8 mph - N/A   Clear
11:35 PM 34.7 °F 29.6 °F 32.0 °F 90% 29.95 in 10.0 mi West 5.8 mph - N/A   Clear
11:55 PM 34.2 °F 29.0 °F 32.0 °F 92% 29.95 in 10.0 mi West 5.8 mph - N/A   Clear